This demonstration page uses our WeatherBlox Daily Observations layout. Learn more.

39.29038, -76.61219

Hourly Observations for April 27, 2019

Temp ( °F °C ) Dew Point ( °F °C ) Humidity (%) Winds ( mph kmh ) Pressure ( in mb ) Visibility ( mi km ) Precip ( " mm )
12:54 am 00:54 undefined 56 13.3 38 3.3 51 51 undefined N/A 29.6 1002 N/A 0 0
1:54 am 01:54 undefined 56 13.3 39 3.9 53 53 undefined N/A 29.62 1003 N/A 0 0
2:54 am 02:54 undefined 55 12.8 40 4.4 57 57 undefined N/A 29.62 1003 N/A 0 0
3:54 am 03:54 undefined 54 12.2 41 5 62 62 undefined N/A 29.63 1003 N/A 0 0
4:54 am 04:54 undefined 53 11.7 41 5 64 64 undefined N/A 29.65 1004 N/A 0 0
5:54 am 05:54 undefined 53 11.7 40 4.4 61 61 undefined N/A 29.65 1004 N/A 0 0
6:54 am 06:54 undefined 54 12.2 29 -1.7 38 38 undefined N/A 29.69 1006 N/A 0 0
7:54 am 07:54 undefined 55 12.8 30 -1.1 38 38 undefined N/A 29.74 1007 N/A 0 0
8:54 am 08:54 undefined 58 14.4 30 -1.1 35 35 undefined N/A 29.75 1007 N/A 0 0
9:54 am 09:54 undefined 60 15.6 28 -2.2 30 30 undefined N/A 29.75 1008 N/A 0 0
10:54 am 10:54 undefined 62 16.7 24 -4.4 23 23 undefined N/A 29.73 1007 N/A 0 0
11:54 am 11:54 undefined 64 17.8 22 -5.6 20 20 undefined N/A 29.72 1007 N/A 0 0
12:54 pm 12:54 undefined 66 18.9 21 -6.1 18 18 undefined N/A 29.71 1006 N/A 0 0
1:54 pm 13:54 undefined 68 20 24 -4.4 19 19 undefined N/A 29.71 1006 N/A 0 0
2:54 pm 14:54 undefined 69 20.6 23 -5 17 17 undefined N/A 29.72 1007 N/A 0 0
3:54 pm 15:54 undefined 69 20.6 21 -6.1 16 16 undefined N/A 29.72 1006 N/A 0 0
4:54 pm 16:54 undefined 69 20.6 18 -7.8 14 14 undefined N/A 29.73 1007 N/A 0 0
5:54 pm 17:54 undefined 68 20 22 -5.6 17 17 undefined N/A 29.74 1007 N/A 0 0
6:54 pm 18:54 undefined 67 19.4 19 -7.2 16 16 undefined N/A 29.79 1009 N/A 0 0
7:54 pm 19:54 undefined 66 18.9 20 -6.7 17 17 undefined N/A 29.81 1010 N/A 0 0
8:54 pm 20:54 undefined 65 18.3 21 -6.1 19 19 undefined N/A 29.84 1010 N/A 0 0
9:54 pm 21:54 undefined 64 17.8 24 -4.4 22 22 undefined N/A 29.85 1011 N/A 0 0
10:54 pm 22:54 undefined 63 17.2 24 -4.4 23 23 undefined N/A 29.88 1012 N/A 0 0
11:54 pm 23:54 undefined 63 17.2 26 -3.3 25 25 undefined N/A 29.92 1013 N/A 0 0

Powered by AerisWeather